Overview Statistics Trail Chart Weather Telemetry Raw packets
 

This is the latest recevied weather packets stored in our database for station/object 9W2CHF-3. If no packets are shown the sender has not sent any weather packets the latest 10 day(s).

<< 1 2 3 4 5 6 7 >>
Time Temp. Humidity Pressure Rain* Wind** Luminosity Snow
1777685220 34.44° C 69% 1011.5 hPa - - - -
1777684012 34.44° C 69% 1011.5 hPa - - - -
1777682812 33.33° C 73% 1011 hPa - - - -
1777681612 33.89° C 72% 1010.7 hPa - - - -
1777680412 32.78° C 77% 1010.5 hPa - - - -
1777679212 30° C 94% 1010.2 hPa - - - -
1777678012 27.78° C 100% 1009.8 hPa - - - -
1777676812 27.78° C 100% 1009.9 hPa - - - -
1777675612 27.78° C 100% 1009.6 hPa - - - -
1777674412 27.78° C 100% 1009.4 hPa - - - -
1777673212 27.78° C 100% 1009.2 hPa - - - -
1777672012 27.22° C 100% 1008.9 hPa - - - -
1777670812 27.22° C 100% 1008.9 hPa - - - -
1777669612 27.22° C 100% 1008.9 hPa - - - -
1777668412 27.78° C 100% 1009.1 hPa - - - -
1777667212 27.78° C 100% 1009.3 hPa - - - -
1777666012 27.78° C 100% 1009.4 hPa - - - -
1777664811 28.33° C 100% 1009.5 hPa - - - -
1777663611 28.33° C 100% 1009.7 hPa - - - -
1777662411 28.33° C 99% 1009.9 hPa - - - -
1777661211 27.78° C 100% 1010.1 hPa - - - -
1777660015 27.78° C 100% 1010.4 hPa - - - -
1777658815 28.33° C 100% 1010.7 hPa - - - -
1777657614 28.89° C 100% 1010.6 hPa - - - -
1777656414 27.78° C 100% 1010.9 hPa - - - -

* Rain since midnight (hover to see other rain measurements)
** Current wind speed in m/s (hover to see current wind gust speed)